This is the latest recevied weather packets stored in our database for station/object WA9NNN-10. If no packets are shown the sender has not sent any weather packets the latest 1 day(s).
| Time | Temp. | Humidity | Pressure | Rain* | Wind** | Luminosity | Snow |
|---|---|---|---|---|---|---|---|
| 1778023597 | 13.89° C | 35% | 1008.2 hPa | 0 mm | 1.79 m/s, 271° | - | - |
| 1778023297 | 13.89° C | 35% | 1008.2 hPa | 0 mm | 1.79 m/s, 292° | - | - |
| 1778022997 | 13.89° C | 35% | 1008.2 hPa | 0 mm | 2.24 m/s, 334° | - | - |
| 1778022697 | 14.44° C | 34% | 1008.2 hPa | 0 mm | 3.58 m/s, 308° | - | - |
| 1778022397 | 14.44° C | 34% | 1008.2 hPa | 0 mm | 1.34 m/s, 255° | - | - |
| 1778022097 | 14.44° C | 35% | 1008.3 hPa | 0 mm | 3.58 m/s, 319° | - | - |
| 1778021797 | 14.44° C | 34% | 1008.3 hPa | 0 mm | 1.79 m/s, 287° | - | - |
| 1778021498 | 14.44° C | 34% | 1008.3 hPa | 0 mm | 1.34 m/s, 346° | - | - |
| 1778021196 | 14.44° C | 34% | 1008.4 hPa | 0 mm | 1.34 m/s, 277° | - | - |
| 1778020897 | 14.44° C | 34% | 1008.3 hPa | 0 mm | 1.34 m/s, 293° | - | - |
| 1778020596 | 14.44° C | 33% | 1008.3 hPa | 0 mm | 1.34 m/s, 292° | - | - |
| 1778020297 | 14.44° C | 35% | 1008.3 hPa | 0 mm | 0.89 m/s, 231° | - | - |
| 1778019996 | 14.44° C | 35% | 1008.2 hPa | 0 mm | 0 m/s | - | - |
| 1778019697 | 14.44° C | 34% | 1008.3 hPa | 0 mm | 0 m/s | - | - |
| 1778019396 | 14.44° C | 34% | 1008.3 hPa | 0 mm | 1.34 m/s, 279° | - | - |
| 1778019097 | 14.44° C | 34% | 1008.3 hPa | 0 mm | 2.24 m/s, 302° | - | - |
| 1778018797 | 14.44° C | 34% | 1008.4 hPa | 0 mm | 0.45 m/s, 246° | - | - |
| 1778018497 | 14.44° C | 33% | 1008.5 hPa | 0 mm | 0.89 m/s, 307° | - | - |
| 1778018196 | 14.44° C | 34% | 1008.5 hPa | 0 mm | 1.79 m/s, 296° | - | - |
| 1778017897 | 14.44° C | 32% | 1008.4 hPa | 0 mm | 0 m/s | - | - |
| 1778017596 | 15° C | 32% | 1008.3 hPa | 0 mm | 1.34 m/s, 317° | - | - |
| 1778017297 | 15° C | 32% | 1008.4 hPa | 0 mm | 0.45 m/s, 278° | - | - |
| 1778016997 | 15° C | 32% | 1008.4 hPa | 0 mm | 1.79 m/s, 261° | - | - |
| 1778016698 | 15° C | 33% | 1008.4 hPa | 0 mm | 3.13 m/s, 239° | - | - |
| 1778016396 | 15° C | 33% | 1008.4 hPa | 0 mm | 0.89 m/s, 268° | - | - |
* Rain latest hour (hover to see other rain measurements)
** Current wind speed in m/s (hover to see current wind gust speed)